                ,  2.047,  2.194,  2.342,  2.490,  2.638,  2.785,  2.933,  3.081,  3.229,  3.376,  3.524,  3.672,  3.819,  3.967,  4.115,  4.263,  4.410,  4.558,  4.706,  4.853,  5.001,  5.149,  5.297,  5.444,  5.592,  5.740,  5.888,  6.035,  6.183,  6.331,  6.478,  6.626,  6.774,  6.922,  7.069,  7.217,  7.365,  7.512,  7.660,  7.808,  7.956,  8.103,  8.251,  8.399,  8.547,  8.694,  8.842,  8.990,  9.137,  9.285,  9.433,  9.581,  9.728,  9.876, 10.024, 10.171, 10.319, 10.467, 10.615, 10.762, 10.910, 11.058, 11.205, 11.353, 11.501, 11.649, 11.796, 11.944, 12.092, 12.240, 12.387, 12.535, 12.683, 12.830, 12.978, 13.126, 13.274, 13.421, 13.569, 13.717, 13.864, 14.012, 14.160, 14.308, 14.455, 14.603, 14.751, 14.899, 15.046, 15.194, 15.342, 15.489, 15.637, 15.785, 15.933, 16.080, 16.228, 16.376, 16.523, 16.671, 16.819, 16.967, 17.114, 17.262, 17.410, 17.557, 17.705, 17.853, 18.001, 18.148, 18.296, 18.444, 18.592, 18.739, 18.887, 19.035, 19.182, 19.330, 19.478, 19.626
2001/11/17 00:00,   10.1,  999.0,   11.9,   12.3,   12.6,   12.5,   13.4,   13.2,   12.4,   11.8,   11.7,   11.5,   10.3,    9.6,    9.1,    7.6,    6.5,    4.7,    3.9,    4.3,    4.1,    3.5,    2.7,    1.2,    1.6,    1.8,    1.2,   -0.1,   -0.7,    0.2,    0.3,   -0.8,   -1.1,   -1.5,   -1.5,   -1.1,   -2.0,   -1.5,   -1.0,   -1.5,   -1.8,   -2.8,   -3.5,   -4.4,   -4.6,   -4.7,   -4.3,   -4.3,   -3.7,   -3.1,   -3.0,   -4.3,   -4.9,   -4.6,   -4.0,   -4.6,   -6.5,   -8.6,   -9.2,   -9.3,   -9.1,   -8.5,   -7.9,   -7.9,   -6.0,   -6.3,   -4.7,   -7.9,   -5.0,   -8.3,   -9.0,  -10.8,  -11.7,  -12.3,  999.0,  -12.3,  -12.2,  -13.6,  -15.4,  999.0,  999.0,  999.0,  999.0,  999.0,  999.0,  999.0,  999.0,  999.0,  999.0,  999.0,  999.0,  999.0,  999.0,  999.0,  -23.9,  -27.4,  -26.6,  999.0,  -26.3,  -30.5,  -28.2,  -24.9,  -20.4,  -11.8,  999.0,  999.0,  999.0,  999.0,   -1.3,  999.0,   -0.6,  999.0,    1.2,  999.0,  999.0,  999.0,   -4.1,  999.0,  999.0,  -12.1
2001/11/17 00:10,  999.0,   11.7,   12.0,   11.5,   11.3,   11.2,   12.4,   12.8,   12.8,   12.8,   12.3,   12.2,   11.6,   10.9,    9.8,    9.3,    8.6,    6.3,    5.0,    4.9,    4.1,    4.0,    3.3,    1.3,    1.6,    1.6,    1.7,    1.5,    0.9,   -0.2,   -0.8,   -1.6,   -1.9,   -2.6,   -2.2,   -1.3,   -2.1,   -1.8,   -1.8,   -1.8,   -2.1,   -2.6,   -3.6,   -4.2,   -4.7,   -4.9,   -4.5,   -4.1,   -3.9,   -3.2,   -3.5,   -4.8,   -5.4,   -4.4,   -4.1,   -5.3,   -7.8,   -9.5,   -9.8,   -9.0,   -8.5,   -8.5,   -7.8,   -8.7,  999.0,   -4.1,   -3.0,   -6.7,   -7.5,   -9.6,  -10.8,  -11.9,  -12.3,  -13.0,  -12.0,  -12.2,  -12.8,  -13.7,  999.0,  999.0,  -15.2,  -16.0,  999.0,  999.0,  999.0,  -14.7,  -16.1,  999.0,  999.0,  999.0,  999.0,  999.0,  999.0,  999.0,  -21.4,  999.0,  -26.9,  999.0,  -26.9,  -28.9,  -28.7,  -25.7,  -19.4,  -11.6,  999.0,  999.0,  999.0,  999.0,   -2.9,  999.0,  999.0,   -0.2,    0.8,  999.0,  999.0,  999.0,  999.0,  999.0,  999.0,  -11.8
2001/11/17 00:20,   15.0,   15.4,   14.1,   12.5,   11.5,   11.1,   11.6,   12.4,   13.1,   13.2,   13.6,   13.6,   13.1,   12.4,   10.6,    9.4,    8.7,    7.4,    6.7,    6.6,    5.6,    4.0,    2.2,    0.6,    0.5,    1.4,    2.1,    2.5,    1.8,    0.2,   -1.2,   -1.7,   -1.7,   -1.5,    0.5,    0.4,    0.3,    0.2,    0.1,   -0.7,   -1.3,   -1.4,   -1.6,   -2.5,   -3.0,   -3.4,   -3.0,   -3.0,   -2.5,   -2.2,   -2.8,   -4.1,   -5.0,   -4.3,   -4.5,   -6.5,   -8.9,   -9.6,   -8.9,   -8.7,   -8.3,   -8.1,   -7.4,   -6.4,   -1.5,   -2.3,   -3.1,   -4.1,   -5.4,   -9.5,  -11.4,  -12.6,  -12.2,  -12.5,  -12.1,  -12.9,  -13.5,  -14.3,  -14.4,  999.0,  -15.2,  -16.4,  999.0,  -14.2,  -14.5,  -15.0,  -16.6,  999.0,  999.0,  999.0,  999.0,  999.0,  999.0,  999.0,  -21.9,  -23.5,  999.0,  999.0,  -26.9,  -28.0,  -28.1,  -24.4,  -18.6,   -9.9,   -7.7,  999.0,  999.0,  999.0,   -1.6,  999.0,  999.0,   -0.1,    0.7,    1.2,  999.0,  999.0,   -5.1,   -6.3,  -10.5,  -11.5
2001/11/17 00:30,   15.9,   15.5,   15.1,   14.0,   12.6,   12.0,   11.5,   12.2,   13.0,   13.3,   13.3,   13.1,   12.9,   11.7,   10.4,    9.3,    8.5,    6.6,    5.5,    5.5,    5.4,    4.8,    3.7,    1.4,    0.8,    0.6,    0.8,    2.2,    1.6,    0.5,   -0.8,   -1.2,   -1.2,   -0.7,   -1.0,   -1.4,   -2.5,   -3.4,   -2.6,   -2.4,   -2.9,   -3.0,   -3.7,   -3.9,   -4.2,   -4.6,   -4.6,   -3.9,   -3.1,   -3.2,   -3.8,   -4.3,   -5.1,   -4.8,   -5.9,   -8.0,   -9.2,   -9.8,   -8.5,   -8.9,   -9.2,   -8.7,   -7.5,   -4.5,   -4.9,   -3.7,   -6.8,   -3.3,   -3.9,   -9.4,  -10.9,  999.0,  -11.0,  -11.4,  -12.2,  -13.5,  -13.6,  -13.6,  -14.9,  999.0,  999.0,  -15.6,  999.0,  -14.5,  999.0,  -15.5,  -16.9,  999.0,  999.0,  999.0,  999.0,  999.0,  999.0,  999.0,  -22.1,  -23.7,  -26.5,  999.0,  -26.7,  -28.1,  -29.4,  -22.4,  -19.8,  -15.2,  999.0,  999.0,  999.0,  999.0,  999.0,  999.0,  999.0,  999.0,    1.1,    0.7,  999.0,  999.0,   -5.0,   -7.4,  -10.1,  -12.6
2001/11/17 00:40,  999.0,  999.0,  999.0,  999.0,  999.0,  999.0,  999.0,  999.0,  999.0,  999.0,  999.0,  999.0,  999.0,  999.0,  999.0,  999.0,  999.0,  999.0,  999.0,  999.0,  999.0,  999.0,  999.0,  999.0,  999.0,  999.0,  999.0,  999.0,  999.0,  999.0,  999.0,  999.0,  999.0,  999.0,  999.0,  999.0,  999.0,  999.0,  999.0,  999.0,  999.0,  999.0,  999.0,  999.0,  999.0,  999.0,  999.0,  999.0,  999.0,  999.0,  999.0,  999.0,  999.0,  999.0,  999.0,  999.0,  999.0,  999.0,  999.0,  999.0,  999.0,  999.0,  999.0,  999.0,  999.0,  999.0,  999.0,  999.0,  999.0,  999.0,  999.0,  999.0,  999.0,  999.0,  999.0,  999.0,  999.0,  999.0,  999.0,  999.0,  999.0,  999.0,  999.0,  999.0,  999.0,  999.0,  999.0,  999.0,  999.0,  999.0,  999.0,  999.0,  999.0,  999.0,  999.0,  999.0,  999.0,  999.0,  999.0,  999.0,  999.0,  999.0,  999.0,  999.0,  999.0,  999.0,  999.0,  999.0,  999.0,  999.0,  999.0,  999.0,  999.0,  999.0,  999.0,  999.0,  999.0,  999.0,  999.0,  999.0
2001/11/17 00:50,  999.0,  999.0,   14.7,   14.8,   14.6,   14.9,   14.4,   14.7,   14.4,   14.4,   12.8,   12.4,   11.9,   11.1,   10.4,   10.1,    8.8,    8.6,    6.3,    6.0,    5.6,    5.0,    4.7,    4.0,    3.8,    1.2,    0.9,    1.8,    1.0,    0.8,   -0.1,   -0.8,   -1.4,   -1.0,   -1.3,   -1.4,   -2.2,   -3.1,   -2.3,   -2.5,   -3.0,   -4.7,   -5.1,   -5.1,   -5.0,   -5.1,   -4.4,   -2.9,   -3.9,   -4.5,   -4.9,   -4.5,   -4.1,   -4.4,   -6.6,   -8.6,   -9.1,   -8.8,   -8.3,   -8.0,   -8.1,   -7.9,   -7.7,   -3.3,   -4.3,   -2.2,   -2.3,   -3.5,   -5.3,   -8.2,  999.0,   -9.0,   -9.8,   -9.9,  -11.4,  -13.2,  999.0,  999.0,  999.0,  999.0,  999.0,  999.0,  999.0,  999.0,  999.0,  999.0,  999.0,  999.0,  999.0,  999.0,  999.0,  999.0,  999.0,  999.0,  999.0,  999.0,  999.0,  999.0,  999.0,  -28.5,  -29.0,  -31.3,  -20.2,  -14.7,  999.0,  999.0,  999.0,  999.0,  999.0,  999.0,  999.0,  999.0,  999.0,  999.0,  999.0,  999.0,  999.0,  999.0,  999.0,  999.0
2001/11/17 01:00,  999.0,  999.0,   14.9,   14.7,   14.8,   14.8,   14.2,   14.8,   14.8,   14.4,   12.3,   12.2,   11.5,   11.1,   10.2,   10.0,    9.7,    9.7,    7.5,    7.0,    6.2,    5.2,    4.6,    3.4,    2.9,    0.8,    0.9,    2.0,    1.6,    1.4,    0.5,   -0.5,   -1.3,   -1.1,   -1.7,   -1.9,   -2.7,   -3.3,   -2.2,   -2.7,   -3.8,   -5.3,   -5.3,   -5.5,   -5.6,   -5.7,   -5.5,   -3.9,   -4.5,   -5.2,   -5.3,   -4.9,   -4.5,   -5.3,   -7.5,   -9.5,   -9.6,   -9.3,   -8.7,   -8.5,   -8.3,   -8.2,   -6.2,   -1.9,   -3.0,   -2.8,   -1.5,   -4.4,   -4.2,   -7.9,   -8.2,   -9.3,  -10.4,  -10.4,  -12.1,  -13.7,  999.0,  999.0,  999.0,  999.0,  999.0,  999.0,  999.0,  999.0,  999.0,  999.0,  999.0,  999.0,  999.0,  999.0,  999.0,  999.0,  999.0,  999.0,  999.0,  999.0,  999.0,  999.0,  999.0,  999.0,  -29.0,  -25.2,  -20.8,  -13.9,   -7.5,   -9.3,  999.0,  999.0,   -5.9,  999.0,  999.0,  999.0,  999.0,  999.0,  999.0,  999.0,  999.0,  999.0,  999.0,  999.0
2001/11/17 01:10,  999.0,  999.0,  999.0,  999.0,  999.0,  999.0,  999.0,  999.0,  999.0,  999.0,  999.0,  999.0,  999.0,  999.0,  999.0,  999.0,  999.0,  999.0,  999.0,  999.0,  999.0,  999.0,  999.0,  999.0,  999.0,  999.0,  999.0,  999.0,  999.0,  999.0,  999.0,  999.0,  999.0,  999.0,  999.0,  999.0,  999.0,  999.0,  999.0,  999.0,  999.0,  999.0,  999.0,  999.0,  999.0,  999.0,  999.0,  999.0,  999.0,  999.0,  999.0,  999.0,  999.0,  999.0,  999.0,  999.0,  999.0,  999.0,  999.0,  999.0,  999.0,  999.0,  999.0,  999.0,  999.0,  999.0,  999.0,  999.0,  999.0,  999.0,  999.0,  999.0,  999.0,  999.0,  999.0,  999.0,  999.0,  999.0,  999.0,  999.0,  999.0,  999.0,  999.0,  999.0,  999.0,  999.0,  999.0,  999.0,  999.0,  999.0,  999.0,  999.0,  999.0,  999.0,  999.0,  999.0,  999.0,  999.0,  999.0,  999.0,  999.0,  999.0,  999.0,  999.0,  999.0,  999.0,  999.0,  999.0,  999.0,  999.0,  999.0,  999.0,  999.0,  999.0,  999.0,  999.0,  999.0,  999.0,  999.0,  999.0
2001/11/17 01:20,  999.0,   15.0,   14.6,   13.7,   13.6,   13.2,   12.7,   12.9,   13.1,   12.3,   11.4,   10.4,    9.8,    9.8,    9.9,   10.3,    6.6,    4.1,    8.2,    8.1,    8.1,    6.9,    5.4,    2.8,    1.8,    0.3,   -0.3,    0.3,   -0.6,    0.2,    0.8,    0.2,    0.3,   -0.0,   -0.3,   -2.5,   -2.6,   -1.4,   -1.6,   -2.8,   -4.2,   -5.1,   -5.5,   -6.4,   -5.8,   -5.2,   -4.2,   -2.8,   -3.0,   -4.4,   -4.0,   -3.7,   -3.3,   -4.0,   -6.2,   -7.6,   -8.0,   -7.8,   -8.2,   -8.3,   -7.8,   -7.3,   -6.8,   -5.4,   -2.2,   -2.9,   -3.7,   -3.9,   -5.7,   -6.6,   -8.2,   -9.4,   -9.8,  -10.8,  -12.7,  -12.0,  -13.6,  999.0,  -13.6,  -14.2,  -14.5,  -15.9,  -17.7,  999.0,  999.0,  999.0,  999.0,  -18.5,  999.0,  999.0,  999.0,  999.0,  999.0,  999.0,  999.0,  -23.5,  -26.5,  -26.4,  -26.8,  999.0,  -30.1,  -28.0,  -22.8,  -13.2,   -8.3,   -6.6,   -5.3,   -2.2,  999.0,   -0.3,   -0.7,  999.0,  999.0,  999.0,  999.0,   -5.4,   -7.5,  -11.0,  999.0,  -12.2
2001/11/17 01:30,  999.0,  999.0,  999.0,  999.0,  999.0,  999.0,  999.0,  999.0,  999.0,  999.0,  999.0,  999.0,  999.0,  999.0,  999.0,  999.0,  999.0,  999.0,  999.0,  999.0,  999.0,  999.0,  999.0,  999.0,  999.0,  999.0,  999.0,  999.0,  999.0,  999.0,  999.0,  999.0,  999.0,  999.0,  999.0,  999.0,  999.0,  999.0,  999.0,  999.0,  999.0,  999.0,  999.0,  999.0,  999.0,  999.0,  999.0,  999.0,  999.0,  999.0,  999.0,  999.0,  999.0,  999.0,  999.0,  999.0,  999.0,  999.0,  999.0,  999.0,  999.0,  999.0,  999.0,  999.0,  999.0,  999.0,  999.0,  999.0,  999.0,  999.0,  999.0,  999.0,  999.0,  999.0,  999.0,  999.0,  999.0,  999.0,  999.0,  999.0,  999.0,  999.0,  999.0,  999.0,  999.0,  999.0,  999.0,  999.0,  999.0,  999.0,  999.0,  999.0,  999.0,  999.0,  999.0,  999.0,  999.0,  999.0,  999.0,  999.0,  999.0,  999.0,  999.0,  999.0,  999.0,  999.0,  999.0,  999.0,  999.0,  999.0,  999.0,  999.0,  999.0,  999.0,  999.0,  999.0,  999.0,  999.0,  999.0,  999.0
2001/11/17 01:40,   12.5,   14.1,   14.7,   13.8,   11.9,   11.4,   11.2,   11.5,   11.4,   11.2,   10.7,   10.2,    9.9,    9.4,    9.3,    8.7,    7.9,    5.7,    4.5,    3.6,    4.1,    4.0,    4.1,    3.5,    4.0,    2.7,    1.6,    1.0,    0.6,   -0.7,   -1.5,   -2.0,   -1.5,   -2.1,   -2.6,   -3.1,   -2.2,   -1.5,   -1.5,   -2.6,   -3.1,   -3.8,   -4.4,   -4.8,   -5.3,   -4.6,   -4.5,   -3.4,   -3.4,   -4.2,   -3.8,   -3.6,   -3.8,   -4.5,   -6.6,   -7.6,   -7.9,   -8.4,   -8.3,   -8.8,   -8.1,   -8.0,   -7.7,   -7.0,   -5.6,   -5.9,   -6.0,   -4.6,   -6.9,   -8.5,   -9.9,  -10.7,  -11.5,  -12.2,  -12.8,  -13.7,  999.0,  -14.1,  -14.0,  -14.2,  -14.6,  -16.4,  -18.4,  -19.9,  999.0,  -19.5,  999.0,  999.0,  999.0,  999.0,  999.0,  999.0,  999.0,  999.0,  999.0,  999.0,  -27.5,  999.0,  999.0,  999.0,  -29.0,  -30.3,  -21.7,  -10.6,   -7.5,   -6.5,   -5.3,   -2.2,   -0.6,  999.0,  999.0,  999.0,   -0.4,   -1.1,  999.0,   -5.4,   -7.4,  -10.7,  -11.7,  999.0
